Location: LDNL
(36.4545°S, 141.6685°E)
Time: 04:39:44
(UTC+11:00)

Vanguard 2 - Pass Details

Date: 12 August 2022
Orbit: 552 x 2934 km, 32.9° (Epoch: 06 October)

Event Time Altitude Azimuth Distance (km) Brightness Sun altitude
Rises 19:12:15 0° 281° (W) 6,603 14.2 -15.5°
Reaches altitude 10° 19:17:00 10° 282° (WNW) 5,385 13.2 -16.4°
Maximum altitude 19:32:04 74° 3° (N) 1,975 9.5 -19.5°
Enters shadow 19:37:54 29° 81° (E) 2,546 9.6 -20.6°
Drops below altitude 10° 19:41:09 10° 86° (E) 3,403 - -21.3°
Sets 19:43:29 0° 87° (E) 4,121 - -21.8°
